Voltar ao catálogo

DELTA 1 DEB

AtivoLEO
NORAD 18470·DEBRIS·🇺🇸 United States

Lançado Nov 6, 1973 de Vandenberg Space Force Base

Loading…

Próximas Passagens (próximas 24 horas)

TLE

AtualizadoSource: Space-Track

Época: Sep 14, 2026, 16:46 UTC

1 18470U 73086GU  26257.69921437 -.00000246  00000-0 -22376-2 0  9993
2 18470 101.7990  43.2928 0180239 294.7444  75.3159 12.06647076830206

Acompanhe DELTA 1 DEB em tempo real com AllMySat

Download on the App Store